Location: Burbank
(38.7788°N, 114.0429°W)
Time: 05:38:07
(UTC+00:00)

Tiros 1 despin weight - Pass Details

Date: 13 May 2026
Orbit: 554 x 591 km, 48.2° (Epoch: 7 June)

Event Time Altitude Azimuth Distance (km) Brightness Sun altitude
Exits shadow 11:54:44 - 201° (SSW) 2,668 ? -6.2°
Reaches altitude 10° 11:57:07 10° 187° (S) 1,851 ? -5.8°
Maximum altitude 12:00:27 23° 135° (SE) 1,227 ? -5.2°
Drops below altitude 10° 12:03:45 10° 83° (E) 1,843 ? -4.6°
Sets 12:06:21 0° 69° (ENE) 2,737 ? -4.2°
